OE7AOT Weather Reports


Display with metric or nautical units.
time (UTC)temp
F
wind
direction
speed
MPH
gust
MPH
rain 1hr
in
rain 24hr
in
rain mn
in
humidity
%
barometer
mb
20260506004717 48 0 0.0 0.0 0.00 1.11 0.00 68 907.2
20260506001717 49 0 0.0 0.0 0.00 1.11 0.00 67 907.3
20260505234717 49 118 3.0 0.0 0.00 1.11 0.00 65 907.4
20260505231717 50 0 0.0 0.0 0.00 1.11 0.00 63 907.6
20260505224717 51 0 0.0 0.0 0.00 1.11 0.00 61 907.4
20260505221717 51 0 0.0 0.0 0.00 1.11 0.00 59 907.3
20260505214717 52 0 0.0 0.0 0.00 1.11 0.00 58 907.1
20260505211717 54 0 0.0 0.0 0.00 1.11 0.00 55 906.7
20260505204717 55 0 0.0 0.0 0.00 1.11 0.00 53 906.6
20260505201717 57 324 1.0 0.0 0.00 1.11 0.00 51 906.2
20260505194717 59 275 3.0 0.0 0.00 1.11 0.00 48 905.9
20260505191717 62 0 0.0 0.0 0.00 1.11 0.00 44 905.5
20260505184717 63 84 6.0 0.0 0.00 1.11 0.00 40 905.2
20260505181717 66 33 8.0 0.0 0.00 1.11 0.00 38 905.0
20260505174717 73 338 2.0 0.0 0.00 1.11 0.00 33 904.7
20260505171717 76 138 6.0 0.0 0.00 1.11 0.00 29 904.7
20260505164717 76 145 10.0 0.0 0.00 1.11 0.00 30 904.6
20260505161717 70 237 3.0 0.0 0.00 1.11 0.00 39 904.9
20260505151717 67 286 4.0 0.0 0.00 1.11 0.00 40 905.4
20260505124717 72 184 6.0 0.0 0.00 1.11 0.00 31 905.1
20260505121717 76 131 11.0 0.0 0.00 1.11 0.00 27 905.1
20260505114717 77 111 13.0 0.0 0.00 1.11 0.00 24 904.8
20260505111717 77 128 15.0 0.0 0.00 1.11 0.00 23 904.8
20260505101717 74 153 12.0 0.0 0.00 1.11 0.00 27 905.6
20260505094717 73 124 11.0 0.0 0.00 1.11 0.00 28 905.9
20260505091717 71 127 11.0 0.0 0.00 1.11 0.00 30 906.2
20260505084717 68 139 7.0 0.0 0.00 1.11 0.00 34 906.4
20260505081717 65 121 9.0 0.0 0.00 1.11 0.00 40 906.9
20260505074717 61 128 9.0 0.0 0.00 1.11 0.00 45 907.1
20260505071717 60 163 11.0 0.0 0.00 1.11 0.00 48 907.3
20260505064717 55 134 9.0 0.0 0.00 1.11 0.00 56 907.6
20260505061717 51 108 6.0 0.0 0.00 1.11 0.00 62 907.9
20260505054717 49 97 7.0 0.0 0.00 1.11 0.00 67 907.8
20260505051717 47 0 0.0 0.0 0.00 1.11 0.00 66 908.1
20260505041717 47 121 5.0 0.0 0.00 1.11 0.00 64 908.1
20260505034717 47 151 3.0 0.0 0.00 1.11 0.00 63 908.1
20260505031717 48 124 3.0 0.0 0.00 1.11 0.00 63 908.3
20260505024717 48 122 5.0 0.0 0.00 1.11 0.00 62 908.5
20260505021717 49 0 0.0 0.0 0.00 1.11 0.00 61 908.7
20260505014717 50 149 1.0 0.0 0.00 1.11 0.00 60 908.8
20260505011717 51 129 3.0 0.0 0.00 1.11 0.00 58 908.9